Time,TemperatureF,DewpointF,PressureIn,WindDirection,WindDirectionDegrees,WindSpeedMPH,WindSpeedGustMPH,Humidity,HourlyPrecipIn,Conditions,Clouds,dailyrainin,SoftwareType,DateUTC
2013-03-02 00:02:00,26.1,22.2,30.88,NW,304,2.0,5.0,85,0.00,CLR,CLR,0.00,WeatherDisplay:10.37,2013-03-02 05:02:00,
2013-03-02 00:07:00,26.1,22.2,30.88,NW,304,2.0,12.0,85,0.00,CLR,CLR,0.00,WeatherDisplay:10.37,2013-03-02 05:07:00,
2013-03-02 00:12:00,26.0,22.1,30.88,NW,304,3.0,10.0,85,0.00,CLR,CLR,0.00,WeatherDisplay:10.37,2013-03-02 05:12:00,
2013-03-02 00:17:00,25.8,23.3,30.88,NW,304,3.0,9.0,90,0.00,CLR,CLR,0.00,WeatherDisplay:10.37,2013-03-02 05:17:00,
2013-03-02 00:27:00,25.6,21.7,30.88,NW,304,2.0,7.0,85,0.00,RA,RA,0.01,WeatherDisplay:10.37,2013-03-02 05:27:00,
2013-03-02 00:32:00,25.4,21.5,30.88,NW,304,5.0,9.0,85,0.00,CLR,CLR,0.01,WeatherDisplay:10.37,2013-03-02 05:32:00,
2013-03-02 00:37:00,25.3,21.5,30.88,NW,304,3.0,9.0,85,0.00,CLR,CLR,0.01,WeatherDisplay:10.37,2013-03-02 05:37:00,
2013-03-02 00:42:00,25.3,21.4,30.88,NW,304,3.0,7.0,85,0.00,CLR,CLR,0.01,WeatherDisplay:10.37,2013-03-02 05:42:00,
2013-03-02 00:47:00,25.2,21.3,30.88,NW,304,1.0,7.0,85,0.00,CLR,CLR,0.01,WeatherDisplay:10.37,2013-03-02 05:47:00,
2013-03-02 00:52:00,25.2,21.6,30.89,NW,304,1.0,8.0,86,0.00,CLR,CLR,0.01,WeatherDisplay:10.37,2013-03-02 05:52:00,
2013-03-02 00:57:00,25.2,21.6,30.89,NW,304,5.0,8.0,86,0.00,CLR,CLR,0.01,WeatherDisplay:10.37,2013-03-02 05:57:00,
2013-03-02 01:02:00,25.2,21.6,30.89,NW,304,1.0,5.0,86,0.00,CLR,CLR,0.01,WeatherDisplay:10.37,2013-03-02 06:02:00,
2013-03-02 01:07:00,25.2,21.6,30.88,NW,304,3.0,6.0,86,0.00,CLR,CLR,0.01,WeatherDisplay:10.37,2013-03-02 06:07:00,
2013-03-02 01:12:00,25.2,21.6,30.88,NW,304,3.0,5.0,86,0.00,CLR,CLR,0.01,WeatherDisplay:10.37,2013-03-02 06:12:00,
2013-03-02 01:17:00,25.1,21.5,30.88,NW,304,1.0,5.0,86,0.00,CLR,CLR,0.01,WeatherDisplay:10.37,2013-03-02 06:17:00,
2013-03-02 01:22:00,25.1,21.5,30.88,NW,304,3.0,7.0,86,0.00,CLR,CLR,0.01,WeatherDisplay:10.37,2013-03-02 06:22:00,
2013-03-02 01:27:00,25.0,21.4,30.88,NW,304,3.0,9.0,86,0.00,CLR,CLR,0.01,WeatherDisplay:10.37,2013-03-02 06:27:00,
2013-03-02 01:32:00,25.0,21.7,30.88,NW,304,1.0,8.0,87,0.00,CLR,CLR,0.01,WeatherDisplay:10.37,2013-03-02 06:32:00,
2013-03-02 01:37:00,25.0,21.7,30.89,NW,304,3.0,6.0,87,0.00,CLR,CLR,0.01,WeatherDisplay:10.37,2013-03-02 06:37:00,
2013-03-02 01:42:00,25.0,21.7,30.89,NW,304,0.0,3.0,87,0.00,CLR,CLR,0.01,WeatherDisplay:10.37,2013-03-02 06:42:00,
2013-03-02 01:47:00,25.0,21.7,30.89,NW,304,3.0,7.0,87,0.00,CLR,CLR,0.01,WeatherDisplay:10.37,2013-03-02 06:47:00,
2013-03-02 01:52:00,25.0,21.7,30.88,NW,304,2.0,6.0,87,0.00,CLR,CLR,0.01,WeatherDisplay:10.37,2013-03-02 06:52:00,
2013-03-02 01:57:00,24.9,21.6,30.88,NW,304,1.0,5.0,87,0.00,CLR,CLR,0.01,WeatherDisplay:10.37,2013-03-02 06:57:00,
2013-03-02 02:02:00,24.9,21.6,30.88,NW,304,1.0,5.0,87,0.00,CLR,CLR,0.01,WeatherDisplay:10.37,2013-03-02 07:02:00,
2013-03-02 02:07:00,24.9,21.3,30.88,NW,304,2.0,5.0,86,0.00,CLR,CLR,0.01,WeatherDisplay:10.37,2013-03-02 07:07:00,
2013-03-02 02:12:00,24.8,21.2,30.88,NW,304,1.0,7.0,86,0.00,CLR,CLR,0.01,WeatherDisplay:10.37,2013-03-02 07:12:00,
2013-03-02 02:17:00,24.8,21.2,30.87,NW,304,3.0,9.0,86,0.00,CLR,CLR,0.01,WeatherDisplay:10.37,2013-03-02 07:17:00,
2013-03-02 02:22:00,24.8,21.5,30.87,NW,304,5.0,8.0,87,0.00,CLR,CLR,0.01,WeatherDisplay:10.37,2013-03-02 07:22:00,
2013-03-02 02:27:00,24.8,21.2,30.87,NW,304,1.0,9.0,86,0.00,CLR,CLR,0.01,WeatherDisplay:10.37,2013-03-02 07:27:00,
2013-03-02 02:32:00,24.8,21.5,30.87,NW,304,0.0,4.0,87,0.00,CLR,CLR,0.01,WeatherDisplay:10.37,2013-03-02 07:32:00,
2013-03-02 02:37:00,24.8,21.5,30.87,NW,304,5.0,9.0,87,0.00,CLR,CLR,0.01,WeatherDisplay:10.37,2013-03-02 07:37:00,
2013-03-02 02:42:00,24.8,21.5,30.87,NW,304,1.0,5.0,87,0.00,CLR,CLR,0.01,WeatherDisplay:10.37,2013-03-02 07:42:00,
2013-03-02 02:47:00,24.8,21.2,30.87,NW,304,2.0,7.0,86,0.00,CLR,CLR,0.01,WeatherDisplay:10.37,2013-03-02 07:47:00,
2013-03-02 02:52:00,24.8,21.5,30.87,NW,304,1.0,4.0,87,0.00,CLR,CLR,0.01,WeatherDisplay:10.37,2013-03-02 07:52:00,
2013-03-02 02:57:00,24.8,21.5,30.87,NW,304,3.0,5.0,87,0.00,CLR,CLR,0.01,WeatherDisplay:10.37,2013-03-02 07:57:00,
2013-03-02 03:02:00,24.8,21.5,30.87,NW,304,2.0,7.0,87,0.00,CLR,CLR,0.01,WeatherDisplay:10.37,2013-03-02 08:02:00,
2013-03-02 03:07:00,24.8,21.5,30.87,NW,304,0.0,5.0,87,0.00,CLR,CLR,0.01,WeatherDisplay:10.37,2013-03-02 08:07:00,
2013-03-02 03:12:00,24.8,21.5,30.86,NW,304,1.0,6.0,87,0.00,CLR,CLR,0.01,WeatherDisplay:10.37,2013-03-02 08:12:00,
2013-03-02 03:17:00,24.8,21.5,30.86,NW,304,2.0,3.0,87,0.00,CLR,CLR,0.01,WeatherDisplay:10.37,2013-03-02 08:17:00,
2013-03-02 03:22:00,24.8,21.5,30.87,NW,304,1.0,5.0,87,0.00,CLR,CLR,0.01,WeatherDisplay:10.37,2013-03-02 08:22:00,
2013-03-02 03:27:00,24.8,21.2,30.86,NW,304,2.0,5.0,86,0.00,CLR,CLR,0.01,WeatherDisplay:10.37,2013-03-02 08:27:00,
2013-03-02 03:32:00,24.8,21.5,30.86,NW,304,1.0,3.0,87,0.00,CLR,CLR,0.01,WeatherDisplay:10.37,2013-03-02 08:32:00,
2013-03-02 03:37:00,24.8,21.5,30.86,NW,304,2.0,5.0,87,0.00,CLR,CLR,0.01,WeatherDisplay:10.37,2013-03-02 08:37:00,
2013-03-02 03:42:00,24.8,21.2,30.86,NW,304,1.0,4.0,86,0.00,CLR,CLR,0.01,WeatherDisplay:10.37,2013-03-02 08:42:00,
2013-03-02 03:47:00,24.8,21.5,30.86,NW,304,1.0,5.0,87,0.00,CLR,CLR,0.01,WeatherDisplay:10.37,2013-03-02 08:47:00,
2013-03-02 03:52:00,24.8,21.2,30.86,NW,304,3.0,5.0,86,0.00,CLR,CLR,0.01,WeatherDisplay:10.37,2013-03-02 08:52:00,
2013-03-02 03:57:00,24.8,21.2,30.86,NW,304,2.0,3.0,86,0.00,CLR,CLR,0.01,WeatherDisplay:10.37,2013-03-02 08:57:00,
2013-03-02 04:02:00,24.8,21.3,30.86,NW,304,0.0,5.0,86,0.00,CLR,CLR,0.01,WeatherDisplay:10.37,2013-03-02 09:02:00,
2013-03-02 04:07:00,24.9,21.3,30.86,NW,304,2.0,4.0,86,0.00,CLR,CLR,0.01,WeatherDisplay:10.37,2013-03-02 09:07:00,
2013-03-02 04:12:00,24.9,21.3,30.86,NW,304,2.0,5.0,86,0.00,CLR,CLR,0.01,WeatherDisplay:10.37,2013-03-02 09:12:00,
2013-03-02 04:17:00,24.8,21.2,30.86,NW,304,1.0,4.0,86,0.00,CLR,CLR,0.01,WeatherDisplay:10.37,2013-03-02 09:17:00,
2013-03-02 04:22:00,24.8,21.5,30.86,NW,304,0.0,3.0,87,0.00,CLR,CLR,0.01,WeatherDisplay:10.37,2013-03-02 09:22:00,
2013-03-02 04:27:00,24.8,21.5,30.86,NW,304,1.0,3.0,87,0.00,CLR,CLR,0.01,WeatherDisplay:10.37,2013-03-02 09:27:00,
2013-03-02 04:32:00,24.8,21.5,30.86,NW,304,0.0,3.0,87,0.00,CLR,CLR,0.01,WeatherDisplay:10.37,2013-03-02 09:32:00,
2013-03-02 04:37:00,24.8,21.7,30.86,NW,304,1.0,2.0,88,0.00,CLR,CLR,0.01,WeatherDisplay:10.37,2013-03-02 09:37:00,
2013-03-02 04:42:00,24.8,21.7,30.86,NW,304,2.0,4.0,88,0.00,CLR,CLR,0.01,WeatherDisplay:10.37,2013-03-02 09:42:00,
2013-03-02 04:47:00,24.7,21.9,30.86,NW,304,0.0,6.0,89,0.00,CLR,CLR,0.01,WeatherDisplay:10.37,2013-03-02 09:47:00,
2013-03-02 04:52:00,24.6,21.8,30.86,NW,304,0.0,3.0,89,0.00,CLR,CLR,0.01,WeatherDisplay:10.37,2013-03-02 09:52:00,
2013-03-02 04:57:00,24.5,21.7,30.86,NW,304,2.0,6.0,89,0.00,CLR,CLR,0.01,WeatherDisplay:10.37,2013-03-02 09:57:00,
2013-03-02 05:02:00,24.5,21.7,30.86,NW,304,0.0,5.0,89,0.00,CLR,CLR,0.01,WeatherDisplay:10.37,2013-03-02 10:02:00,
2013-03-02 05:07:00,24.4,21.7,30.86,NW,304,1.0,5.0,89,0.00,CLR,CLR,0.01,WeatherDisplay:10.37,2013-03-02 10:07:00,
2013-03-02 05:17:00,24.4,21.6,30.86,NW,304,1.0,7.0,89,0.00,CLR,CLR,0.01,WeatherDisplay:10.37,2013-03-02 10:17:00,
2013-03-02 05:22:00,24.4,21.6,30.86,NW,304,0.0,3.0,89,0.00,CLR,CLR,0.01,WeatherDisplay:10.37,2013-03-02 10:22:00,
2013-03-02 05:27:00,24.4,21.6,30.86,NW,304,0.0,3.0,89,0.00,CLR,CLR,0.01,WeatherDisplay:10.37,2013-03-02 10:27:00,
2013-03-02 05:32:00,24.3,21.3,30.86,NW,304,2.0,4.0,88,0.00,CLR,CLR,0.01,WeatherDisplay:10.37,2013-03-02 10:32:00,
2013-03-02 05:37:00,24.3,21.3,30.86,NW,304,0.0,6.0,88,0.00,CLR,CLR,0.01,WeatherDisplay:10.37,2013-03-02 10:37:00,
2013-03-02 05:42:00,24.3,21.3,30.86,NW,304,2.0,3.0,88,0.00,CLR,CLR,0.01,WeatherDisplay:10.37,2013-03-02 10:42:00,
2013-03-02 05:47:00,24.3,21.3,30.86,NW,304,0.0,0.0,88,0.00,CLR,CLR,0.01,WeatherDisplay:10.37,2013-03-02 10:47:00,
2013-03-02 05:52:00,24.3,21.5,30.86,NW,304,0.0,0.0,89,0.00,CLR,CLR,0.01,WeatherDisplay:10.37,2013-03-02 10:52:00,
2013-03-02 05:57:00,24.3,21.5,30.86,NW,304,0.0,0.0,89,0.00,CLR,CLR,0.01,WeatherDisplay:10.37,2013-03-02 10:57:00,
2013-03-02 06:02:00,24.3,21.5,30.86,NW,304,0.0,3.0,89,0.00,CLR,CLR,0.01,WeatherDisplay:10.37,2013-03-02 11:02:00,
2013-03-02 06:07:00,24.3,21.5,30.86,NW,304,1.0,2.0,89,0.00,CLR,CLR,0.01,WeatherDisplay:10.37,2013-03-02 11:07:00,
2013-03-02 06:12:00,24.3,21.5,30.86,NW,304,1.0,2.0,89,0.00,CLR,CLR,0.01,WeatherDisplay:10.37,2013-03-02 11:12:00,
2013-03-02 06:17:00,24.3,21.5,30.86,NW,304,2.0,3.0,89,0.00,CLR,CLR,0.01,WeatherDisplay:10.37,2013-03-02 11:17:00,
2013-03-02 06:22:00,24.2,21.5,30.86,NW,304,0.0,2.0,89,0.00,CLR,CLR,0.01,WeatherDisplay:10.37,2013-03-02 11:22:00,
2013-03-02 06:27:00,24.2,21.4,30.86,NW,304,0.0,3.0,89,0.00,CLR,CLR,0.01,WeatherDisplay:10.37,2013-03-02 11:27:00,
2013-03-02 06:32:00,24.2,21.7,30.87,NW,304,0.0,2.0,90,0.00,CLR,CLR,0.01,WeatherDisplay:10.37,2013-03-02 11:32:00,
2013-03-02 06:37:00,24.2,21.7,30.86,NW,304,0.0,0.0,90,0.00,CLR,CLR,0.01,WeatherDisplay:10.37,2013-03-02 11:37:00,
2013-03-02 06:42:00,24.2,21.6,30.87,NW,304,0.0,2.0,90,0.00,CLR,CLR,0.01,WeatherDisplay:10.37,2013-03-02 11:42:00,
2013-03-02 06:47:00,24.2,21.7,30.87,NW,304,2.0,3.0,90,0.00,CLR,CLR,0.01,WeatherDisplay:10.37,2013-03-02 11:47:00,
2013-03-02 06:52:00,24.1,21.6,30.87,NW,304,0.0,2.0,90,0.00,CLR,CLR,0.01,WeatherDisplay:10.37,2013-03-02 11:52:00,
2013-03-02 06:57:00,24.1,21.6,30.87,NW,304,0.0,0.0,90,0.00,CLR,CLR,0.01,WeatherDisplay:10.37,2013-03-02 11:57:00,
2013-03-02 07:02:00,24.2,21.7,30.87,NW,304,0.0,0.0,90,0.00,CLR,CLR,0.01,WeatherDisplay:10.37,2013-03-02 12:02:00,
2013-03-02 07:07:00,24.2,21.7,30.87,NW,304,1.0,4.0,90,0.00,CLR,CLR,0.01,WeatherDisplay:10.37,2013-03-02 12:07:00,
2013-03-02 07:12:00,24.2,21.7,30.87,NW,304,1.0,4.0,90,0.00,CLR,CLR,0.01,WeatherDisplay:10.37,2013-03-02 12:12:00,
2013-03-02 07:17:00,24.2,21.7,30.86,NW,304,2.0,4.0,90,0.00,CLR,CLR,0.01,WeatherDisplay:10.37,2013-03-02 12:17:00,
2013-03-02 07:22:00,24.2,21.7,30.86,NW,304,0.0,3.0,90,0.00,CLR,CLR,0.01,WeatherDisplay:10.37,2013-03-02 12:22:00,
2013-03-02 07:27:00,24.2,21.7,30.86,NW,304,0.0,2.0,90,0.00,CLR,CLR,0.01,WeatherDisplay:10.37,2013-03-02 12:27:00,
2013-03-02 07:32:00,24.2,21.7,30.87,NW,304,0.0,3.0,90,0.00,CLR,CLR,0.01,WeatherDisplay:10.37,2013-03-02 12:32:00,
2013-03-02 07:37:00,24.2,21.7,30.87,NW,304,2.0,4.0,90,0.00,CLR,CLR,0.01,WeatherDisplay:10.37,2013-03-02 12:37:00,
2013-03-02 07:42:00,24.3,21.7,30.87,NW,304,1.0,4.0,90,0.00,CLR,CLR,0.01,WeatherDisplay:10.37,2013-03-02 12:42:00,
2013-03-02 07:47:00,24.3,21.7,30.87,NW,304,0.0,4.0,90,0.00,CLR,CLR,0.01,WeatherDisplay:10.37,2013-03-02 12:47:00,
2013-03-02 07:52:00,24.3,21.8,30.87,NW,304,0.0,4.0,90,0.00,CLR,CLR,0.01,WeatherDisplay:10.37,2013-03-02 12:52:00,
2013-03-02 07:57:00,24.3,21.8,30.87,NW,304,2.0,4.0,90,0.00,CLR,CLR,0.01,WeatherDisplay:10.37,2013-03-02 12:57:00,
2013-03-02 08:02:00,24.3,21.8,30.87,NW,304,1.0,4.0,90,0.00,CLR,CLR,0.01,WeatherDisplay:10.37,2013-03-02 13:02:00,
2013-03-02 08:07:00,24.3,21.8,30.87,NW,304,2.0,6.0,90,0.00,CLR,CLR,0.01,WeatherDisplay:10.37,2013-03-02 13:07:00,
2013-03-02 08:12:00,24.4,21.9,30.87,NW,304,2.0,6.0,90,0.00,CLR,CLR,0.01,WeatherDisplay:10.37,2013-03-02 13:12:00,
2013-03-02 08:17:00,24.4,21.9,30.87,NW,304,0.0,5.0,90,0.00,CLR,CLR,0.01,WeatherDisplay:10.37,2013-03-02 13:17:00,
2013-03-02 08:22:00,24.4,21.6,30.87,NW,304,3.0,8.0,89,0.00,CLR,CLR,0.01,WeatherDisplay:10.37,2013-03-02 13:22:00,
2013-03-02 08:27:00,24.4,21.6,30.87,NW,304,2.0,6.0,89,0.00,CLR,CLR,0.01,WeatherDisplay:10.37,2013-03-02 13:27:00,
2013-03-02 08:32:00,24.4,21.4,30.87,NW,304,3.0,10.0,88,0.00,CLR,CLR,0.01,WeatherDisplay:10.37,2013-03-02 13:32:00,
2013-03-02 08:37:00,24.4,21.1,30.87,NW,304,3.0,8.0,87,0.00,CLR,CLR,0.01,WeatherDisplay:10.37,2013-03-02 13:37:00,
2013-03-02 08:42:00,24.5,21.2,30.87,NW,304,2.0,6.0,87,0.00,CLR,CLR,0.01,WeatherDisplay:10.37,2013-03-02 13:42:00,
2013-03-02 08:47:00,24.5,20.9,30.87,NW,304,1.0,7.0,86,0.00,CLR,CLR,0.01,WeatherDisplay:10.37,2013-03-02 13:47:00,
2013-03-02 08:52:00,24.6,21.0,30.87,NW,304,5.0,12.0,86,0.00,CLR,CLR,0.01,WeatherDisplay:10.37,2013-03-02 13:52:00,
2013-03-02 08:57:00,24.6,20.7,30.87,NW,304,2.0,6.0,85,0.00,CLR,CLR,0.01,WeatherDisplay:10.37,2013-03-02 13:57:00,
2013-03-02 09:02:00,24.6,20.7,30.87,NW,304,5.0,8.0,85,0.00,CLR,CLR,0.01,WeatherDisplay:10.37,2013-03-02 14:02:00,
2013-03-02 09:07:00,24.6,21.0,30.87,NW,304,5.0,8.0,86,0.00,CLR,CLR,0.01,WeatherDisplay:10.37,2013-03-02 14:07:00,
2013-03-02 09:12:00,24.6,21.0,30.87,NW,304,1.0,5.0,86,0.00,CLR,CLR,0.01,WeatherDisplay:10.37,2013-03-02 14:12:00,
2013-03-02 09:17:00,24.7,21.1,30.87,NW,304,3.0,6.0,86,0.00,CLR,CLR,0.01,WeatherDisplay:10.37,2013-03-02 14:17:00,
2013-03-02 09:22:00,24.8,21.2,30.87,NW,304,2.0,8.0,86,0.00,CLR,CLR,0.01,WeatherDisplay:10.37,2013-03-02 14:22:00,
2013-03-02 09:27:00,24.8,21.2,30.87,NW,304,5.0,8.0,86,0.00,CLR,CLR,0.01,WeatherDisplay:10.37,2013-03-02 14:27:00,
2013-03-02 09:32:00,24.8,21.2,30.87,NW,304,3.0,8.0,86,0.00,CLR,CLR,0.01,WeatherDisplay:10.37,2013-03-02 14:32:00,
2013-03-02 09:37:00,24.9,21.3,30.87,NW,304,2.0,4.0,86,0.00,CLR,CLR,0.01,WeatherDisplay:10.37,2013-03-02 14:37:00,
2013-03-02 09:42:00,24.9,21.3,30.87,NW,304,3.0,7.0,86,0.00,CLR,CLR,0.01,WeatherDisplay:10.37,2013-03-02 14:42:00,
2013-03-02 09:47:00,24.8,21.5,30.87,NW,304,1.0,8.0,87,0.00,CLR,CLR,0.01,WeatherDisplay:10.37,2013-03-02 14:47:00,
2013-03-02 09:52:00,24.8,21.5,30.87,NW,304,2.0,8.0,87,0.00,CLR,CLR,0.01,WeatherDisplay:10.37,2013-03-02 14:52:00,
2013-03-02 09:57:00,24.8,21.5,30.87,NW,304,3.0,8.0,87,0.00,CLR,CLR,0.01,WeatherDisplay:10.37,2013-03-02 14:57:00,
2013-03-02 10:02:00,24.7,21.4,30.87,NW,304,3.0,9.0,87,0.00,CLR,CLR,0.01,WeatherDisplay:10.37,2013-03-02 15:02:00,
2013-03-02 10:07:00,24.6,21.3,30.88,NW,304,3.0,8.0,87,0.00,CLR,CLR,0.01,WeatherDisplay:10.37,2013-03-02 15:07:00,
2013-03-02 10:12:00,24.5,21.2,30.87,NW,304,3.0,10.0,87,0.00,CLR,CLR,0.01,WeatherDisplay:10.37,2013-03-02 15:12:00,
2013-03-02 10:17:00,24.5,21.2,30.87,NW,304,6.0,8.0,87,0.00,CLR,CLR,0.01,WeatherDisplay:10.37,2013-03-02 15:17:00,
2013-03-02 10:22:00,24.4,21.1,30.88,NW,304,3.0,7.0,87,0.00,CLR,CLR,0.01,WeatherDisplay:10.37,2013-03-02 15:22:00,
2013-03-02 10:27:00,24.5,20.9,30.87,NW,304,5.0,9.0,86,0.00,CLR,CLR,0.01,WeatherDisplay:10.37,2013-03-02 15:27:00,
2013-03-02 10:32:00,24.5,20.9,30.88,NW,304,1.0,8.0,86,0.00,CLR,CLR,0.01,WeatherDisplay:10.37,2013-03-02 15:32:00,
2013-03-02 10:37:00,24.6,21.3,30.88,NW,304,2.0,6.0,87,0.00,CLR,CLR,0.01,WeatherDisplay:10.37,2013-03-02 15:37:00,
2013-03-02 10:42:00,24.6,21.3,30.88,NW,304,3.0,6.0,87,0.00,CLR,CLR,0.01,WeatherDisplay:10.37,2013-03-02 15:42:00,
2013-03-02 10:47:00,24.7,21.3,30.87,NW,304,1.0,5.0,87,0.00,CLR,CLR,0.01,WeatherDisplay:10.37,2013-03-02 15:47:00,
2013-03-02 10:52:00,24.8,21.2,30.87,NW,304,2.0,12.0,86,0.00,CLR,CLR,0.01,WeatherDisplay:10.37,2013-03-02 15:52:00,
2013-03-02 10:57:00,24.8,21.2,30.88,NW,304,3.0,8.0,86,0.00,CLR,CLR,0.01,WeatherDisplay:10.37,2013-03-02 15:57:00,
2013-03-02 11:02:00,24.8,20.9,30.88,NW,304,6.0,9.0,85,0.00,CLR,CLR,0.01,WeatherDisplay:10.37,2013-03-02 16:02:00,
2013-03-02 11:07:00,24.7,20.9,30.88,NW,308,3.0,9.0,85,0.00,CLR,CLR,0.01,WeatherDisplay:10.37,2013-03-02 16:07:00,
2013-03-02 11:12:00,24.7,20.3,30.88,NW,324,0.0,0.0,83,0.00,CLR,CLR,0.01,WeatherDisplay:10.37,2013-03-02 16:12:00,
2013-03-02 11:17:00,24.6,20.2,30.88,North,3,0.0,0.0,83,0.00,CLR,CLR,0.01,WeatherDisplay:10.37,2013-03-02 16:17:00,
2013-03-02 11:22:00,24.2,19.5,30.87,North,3,0.0,0.0,82,0.00,CLR,CLR,0.01,WeatherDisplay:10.37,2013-03-02 16:22:00,
2013-03-02 11:27:00,24.2,19.8,30.88,North,2,0.0,0.0,83,0.00,CLR,CLR,0.01,WeatherDisplay:10.37,2013-03-02 16:27:00,
2013-03-02 11:32:00,24.4,20.0,30.88,North,2,0.0,0.0,83,0.00,CLR,CLR,0.01,WeatherDisplay:10.37,2013-03-02 16:32:00,
2013-03-02 11:37:00,24.3,19.9,30.88,North,2,0.0,0.0,83,0.00,CLR,CLR,0.01,WeatherDisplay:10.37,2013-03-02 16:37:00,
2013-03-02 11:42:00,24.3,20.2,30.88,North,0,0.0,0.0,84,0.00,CLR,CLR,0.01,WeatherDisplay:10.37,2013-03-02 16:42:00,
2013-03-02 11:47:00,24.3,19.9,30.88,North,2,0.0,0.0,83,0.00,CLR,CLR,0.01,WeatherDisplay:10.37,2013-03-02 16:47:00,
2013-03-02 11:52:00,24.2,20.3,30.88,North,3,0.0,0.0,85,0.00,CLR,CLR,0.01,WeatherDisplay:10.37,2013-03-02 16:52:00,
2013-03-02 11:57:00,24.4,20.2,30.88,North,2,0.0,0.0,84,0.00,CLR,CLR,0.01,WeatherDisplay:10.37,2013-03-02 16:57:00,
2013-03-02 12:02:00,24.3,19.9,30.88,North,2,0.0,0.0,83,0.00,CLR,CLR,0.01,WeatherDisplay:10.37,2013-03-02 17:02:00,
2013-03-02 12:07:00,24.1,20.0,30.88,North,1,0.0,0.0,84,0.00,CLR,CLR,0.01,WeatherDisplay:10.37,2013-03-02 17:07:00,
2013-03-02 12:12:00,24.3,20.2,30.88,North,3,0.0,0.0,84,0.00,CLR,CLR,0.01,WeatherDisplay:10.37,2013-03-02 17:12:00,
2013-03-02 12:17:00,24.1,19.9,30.88,North,3,0.0,0.0,84,0.00,CLR,CLR,0.01,WeatherDisplay:10.37,2013-03-02 17:17:00,
2013-03-02 12:22:00,24.3,20.1,30.88,North,2,0.0,0.0,84,0.00,CLR,CLR,0.01,WeatherDisplay:10.37,2013-03-02 17:22:00,
2013-03-02 12:27:00,24.5,20.4,30.88,North,1,0.0,0.0,84,0.00,CLR,CLR,0.01,WeatherDisplay:10.37,2013-03-02 17:27:00,
2013-03-02 12:32:00,24.5,20.1,30.87,North,1,0.0,0.0,83,0.00,CLR,CLR,0.01,WeatherDisplay:10.37,2013-03-02 17:32:00,
2013-03-02 12:37:00,24.4,20.0,30.87,North,1,0.0,0.0,83,0.00,CLR,CLR,0.01,WeatherDisplay:10.37,2013-03-02 17:37:00,
2013-03-02 12:42:00,24.4,20.0,30.87,North,2,0.0,0.0,83,0.00,CLR,CLR,0.01,WeatherDisplay:10.37,2013-03-02 17:42:00,
2013-03-02 12:47:00,24.4,20.0,30.87,North,1,0.0,0.0,83,0.00,CLR,CLR,0.01,WeatherDisplay:10.37,2013-03-02 17:47:00,
2013-03-02 12:52:00,24.5,20.4,30.87,North,0,0.0,0.0,84,0.00,CLR,CLR,0.01,WeatherDisplay:10.37,2013-03-02 17:52:00,
2013-03-02 12:57:00,24.7,20.6,30.87,North,1,0.0,0.0,84,0.00,CLR,CLR,0.01,WeatherDisplay:10.37,2013-03-02 17:57:00,
2013-03-02 13:02:00,25.0,20.8,30.87,North,1,0.0,0.0,84,0.00,CLR,CLR,0.01,WeatherDisplay:10.37,2013-03-02 18:02:00,
2013-03-02 13:07:00,25.1,20.7,30.86,North,1,0.0,0.0,83,0.00,CLR,CLR,0.01,WeatherDisplay:10.37,2013-03-02 18:07:00,
2013-03-02 13:12:00,24.8,20.4,30.86,North,1,0.0,0.0,83,0.00,CLR,CLR,0.01,WeatherDisplay:10.37,2013-03-02 18:12:00,
2013-03-02 13:17:00,24.9,20.4,30.86,North,1,0.0,0.0,83,0.00,CLR,CLR,0.01,WeatherDisplay:10.37,2013-03-02 18:17:00,
2013-03-02 13:22:00,25.1,20.7,30.86,North,2,0.0,0.0,83,0.00,CLR,CLR,0.01,WeatherDisplay:10.37,2013-03-02 18:22:00,
2013-03-02 13:27:00,25.3,20.6,30.86,North,1,0.0,0.0,82,0.00,CLR,CLR,0.01,WeatherDisplay:10.37,2013-03-02 18:27:00,
2013-03-02 13:32:00,25.3,20.6,30.86,North,2,0.0,0.0,82,0.00,CLR,CLR,0.01,WeatherDisplay:10.37,2013-03-02 18:32:00,
2013-03-02 13:37:00,25.3,20.6,30.86,North,2,0.0,0.0,82,0.00,CLR,CLR,0.01,WeatherDisplay:10.37,2013-03-02 18:37:00,
2013-03-02 13:42:00,25.2,20.5,30.86,North,3,0.0,0.0,82,0.00,CLR,CLR,0.01,WeatherDisplay:10.37,2013-03-02 18:42:00,
2013-03-02 13:47:00,25.2,20.5,30.86,North,2,0.0,0.0,82,0.00,CLR,CLR,0.01,WeatherDisplay:10.37,2013-03-02 18:47:00,
2013-03-02 13:52:00,25.3,20.6,30.86,North,2,0.0,0.0,82,0.00,CLR,CLR,0.01,WeatherDisplay:10.37,2013-03-02 18:52:00,
2013-03-02 13:57:00,25.4,20.7,30.86,North,3,0.0,0.0,82,0.00,CLR,CLR,0.01,WeatherDisplay:10.37,2013-03-02 18:57:00,
2013-03-02 14:02:00,25.5,20.5,30.86,North,1,0.0,0.0,81,0.00,CLR,CLR,0.01,WeatherDisplay:10.37,2013-03-02 19:02:00,
2013-03-02 14:12:00,25.8,20.8,30.86,North,3,0.0,0.0,81,0.00,CLR,CLR,0.01,WeatherDisplay:10.37,2013-03-02 19:12:00,
2013-03-02 14:17:00,25.8,21.1,30.85,NNW,336,5.0,7.0,82,0.00,CLR,CLR,0.01,WeatherDisplay:10.37,2013-03-02 19:17:00,
2013-03-02 14:22:00,25.8,21.1,30.85,NW,309,3.0,7.0,82,0.00,CLR,CLR,0.01,WeatherDisplay:10.37,2013-03-02 19:22:00,
2013-03-02 14:27:00,25.9,21.2,30.85,NW,304,3.0,6.0,82,0.00,CLR,CLR,0.01,WeatherDisplay:10.37,2013-03-02 19:27:00,
2013-03-02 14:32:00,25.9,21.1,30.85,NW,304,1.0,9.0,82,0.00,CLR,CLR,0.01,WeatherDisplay:10.37,2013-03-02 19:32:00,
2013-03-02 14:37:00,26.0,21.2,30.85,NW,304,5.0,8.0,82,0.00,CLR,CLR,0.01,WeatherDisplay:10.37,2013-03-02 19:37:00,
2013-03-02 14:42:00,26.0,21.5,30.85,NW,304,1.0,6.0,83,0.00,CLR,CLR,0.01,WeatherDisplay:10.37,2013-03-02 19:42:00,
2013-03-02 14:47:00,26.1,21.4,30.85,NW,304,3.0,12.0,82,0.00,CLR,CLR,0.01,WeatherDisplay:10.37,2013-03-02 19:47:00,
2013-03-02 14:52:00,26.1,21.4,30.85,NW,304,6.0,12.0,82,0.00,CLR,CLR,0.01,WeatherDisplay:10.37,2013-03-02 19:52:00,
2013-03-02 14:57:00,26.2,21.5,30.85,NW,304,2.0,7.0,82,0.00,CLR,CLR,0.01,WeatherDisplay:10.37,2013-03-02 19:57:00,
2013-03-02 15:02:00,26.3,21.8,30.85,NW,304,2.0,6.0,83,0.00,CLR,CLR,0.01,WeatherDisplay:10.37,2013-03-02 20:02:00,
2013-03-02 15:07:00,26.3,21.6,30.85,NW,304,5.0,9.0,82,0.00,CLR,CLR,0.01,WeatherDisplay:10.37,2013-03-02 20:07:00,
2013-03-02 15:12:00,26.5,21.7,30.85,NW,304,2.0,7.0,82,0.00,CLR,CLR,0.01,WeatherDisplay:10.37,2013-03-02 20:12:00,
2013-03-02 15:17:00,26.6,21.8,30.85,NW,304,3.0,6.0,82,0.00,CLR,CLR,0.01,WeatherDisplay:10.37,2013-03-02 20:17:00,
2013-03-02 15:22:00,26.7,22.2,30.85,NW,304,2.0,8.0,83,0.00,CLR,CLR,0.01,WeatherDisplay:10.37,2013-03-02 20:22:00,
2013-03-02 15:32:00,26.7,22.2,30.85,NW,304,6.0,13.0,83,0.00,CLR,CLR,0.01,WeatherDisplay:10.37,2013-03-02 20:32:00,
2013-03-02 15:37:00,26.6,22.1,30.85,NW,304,3.0,8.0,83,0.00,CLR,CLR,0.01,WeatherDisplay:10.37,2013-03-02 20:37:00,
2013-03-02 15:42:00,26.7,22.5,30.85,NW,304,2.0,5.0,84,0.00,CLR,CLR,0.01,WeatherDisplay:10.37,2013-03-02 20:42:00,
2013-03-02 15:47:00,26.7,22.5,30.85,NW,304,3.0,9.0,84,0.00,CLR,CLR,0.01,WeatherDisplay:10.37,2013-03-02 20:47:00,
2013-03-02 15:52:00,26.7,22.5,30.85,NW,304,2.0,6.0,84,0.00,CLR,CLR,0.01,WeatherDisplay:10.37,2013-03-02 20:52:00,
2013-03-02 15:57:00,26.7,22.5,30.85,NW,304,1.0,7.0,84,0.00,CLR,CLR,0.01,WeatherDisplay:10.37,2013-03-02 20:57:00,
2013-03-02 16:02:00,26.8,22.9,30.85,NW,304,3.0,6.0,85,0.00,CLR,CLR,0.01,WeatherDisplay:10.37,2013-03-02 21:02:00,
2013-03-02 16:07:00,26.9,23.0,30.85,NW,304,1.0,4.0,85,0.00,CLR,CLR,0.01,WeatherDisplay:10.37,2013-03-02 21:07:00,
2013-03-02 16:12:00,26.9,23.0,30.85,NW,304,3.0,8.0,85,0.00,CLR,CLR,0.01,WeatherDisplay:10.37,2013-03-02 21:12:00,
2013-03-02 16:17:00,26.9,23.0,30.85,NW,304,3.0,9.0,85,0.00,CLR,CLR,0.01,WeatherDisplay:10.37,2013-03-02 21:17:00,
2013-03-02 16:22:00,26.9,22.9,30.85,NW,304,5.0,10.0,85,0.00,CLR,CLR,0.01,WeatherDisplay:10.37,2013-03-02 21:22:00,
2013-03-02 16:27:00,26.8,23.2,30.85,NW,304,1.0,7.0,86,0.00,CLR,CLR,0.01,WeatherDisplay:10.37,2013-03-02 21:27:00,
2013-03-02 16:32:00,26.9,23.3,30.85,NW,304,3.0,7.0,86,0.00,CLR,CLR,0.01,WeatherDisplay:10.37,2013-03-02 21:32:00,
2013-03-02 16:37:00,26.9,23.3,30.85,NW,304,5.0,7.0,86,0.00,CLR,CLR,0.01,WeatherDisplay:10.37,2013-03-02 21:37:00,
2013-03-02 16:42:00,26.9,23.3,30.85,NW,304,5.0,8.0,86,0.00,CLR,CLR,0.01,WeatherDisplay:10.37,2013-03-02 21:42:00,
2013-03-02 16:47:00,26.9,23.5,30.85,NW,304,2.0,7.0,87,0.00,CLR,CLR,0.01,WeatherDisplay:10.37,2013-03-02 21:47:00,
2013-03-02 16:52:00,26.9,23.6,30.85,NW,304,5.0,8.0,87,0.00,CLR,CLR,0.01,WeatherDisplay:10.37,2013-03-02 21:52:00,
2013-03-02 16:57:00,27.0,23.6,30.85,NW,304,2.0,7.0,87,0.00,CLR,CLR,0.01,WeatherDisplay:10.37,2013-03-02 21:57:00,
2013-03-02 17:02:00,27.0,23.6,30.85,NW,304,0.0,6.0,87,0.00,CLR,CLR,0.01,WeatherDisplay:10.37,2013-03-02 22:02:00,
2013-03-02 17:07:00,27.0,23.6,30.85,NW,304,3.0,5.0,87,0.00,CLR,CLR,0.01,WeatherDisplay:10.37,2013-03-02 22:07:00,
2013-03-02 17:12:00,27.0,23.6,30.85,NW,304,3.0,6.0,87,0.00,CLR,CLR,0.01,WeatherDisplay:10.37,2013-03-02 22:12:00,
2013-03-02 17:17:00,27.0,23.9,30.85,NW,304,1.0,5.0,88,0.00,CLR,CLR,0.01,WeatherDisplay:10.37,2013-03-02 22:17:00,
2013-03-02 17:22:00,27.1,24.0,30.85,NW,304,2.0,6.0,88,0.00,CLR,CLR,0.01,WeatherDisplay:10.37,2013-03-02 22:22:00,
2013-03-02 17:27:00,27.1,24.0,30.85,NW,304,0.0,5.0,88,0.00,CLR,CLR,0.01,WeatherDisplay:10.37,2013-03-02 22:27:00,
2013-03-02 17:32:00,27.1,24.0,30.85,NW,304,2.0,6.0,88,0.00,CLR,CLR,0.01,WeatherDisplay:10.37,2013-03-02 22:32:00,
2013-03-02 17:37:00,27.1,24.0,30.85,NW,304,2.0,7.0,88,0.00,CLR,CLR,0.01,WeatherDisplay:10.37,2013-03-02 22:37:00,
2013-03-02 17:42:00,27.2,24.1,30.85,NW,304,2.0,7.0,88,0.00,CLR,CLR,0.01,WeatherDisplay:10.37,2013-03-02 22:42:00,
2013-03-02 17:47:00,27.2,24.1,30.85,NW,304,2.0,6.0,88,0.00,CLR,CLR,0.01,WeatherDisplay:10.37,2013-03-02 22:47:00,
2013-03-02 17:52:00,27.2,24.1,30.85,NW,304,2.0,9.0,88,0.00,CLR,CLR,0.01,WeatherDisplay:10.37,2013-03-02 22:52:00,
2013-03-02 17:57:00,27.3,24.2,30.85,NW,304,1.0,6.0,88,0.00,CLR,CLR,0.01,WeatherDisplay:10.37,2013-03-02 22:57:00,
2013-03-02 18:02:00,27.3,24.2,30.85,NW,304,3.0,7.0,88,0.00,CLR,CLR,0.01,WeatherDisplay:10.37,2013-03-02 23:02:00,
2013-03-02 18:07:00,27.3,24.2,30.85,NW,304,1.0,3.0,88,0.00,CLR,CLR,0.01,WeatherDisplay:10.37,2013-03-02 23:07:00,
2013-03-02 18:12:00,27.3,24.2,30.85,NW,304,0.0,5.0,88,0.00,CLR,CLR,0.01,WeatherDisplay:10.37,2013-03-02 23:12:00,
2013-03-02 18:17:00,27.4,24.3,30.86,NW,304,2.0,6.0,88,0.00,CLR,CLR,0.01,WeatherDisplay:10.37,2013-03-02 23:17:00,
2013-03-02 18:22:00,27.4,24.3,30.86,NW,304,6.0,8.0,88,0.00,CLR,CLR,0.01,WeatherDisplay:10.37,2013-03-02 23:22:00,
2013-03-02 18:27:00,27.4,24.3,30.85,NW,304,3.0,8.0,88,0.00,CLR,CLR,0.01,WeatherDisplay:10.37,2013-03-02 23:27:00,
2013-03-02 18:32:00,27.4,24.3,30.86,NW,304,3.0,9.0,88,0.00,CLR,CLR,0.01,WeatherDisplay:10.37,2013-03-02 23:32:00,
2013-03-02 18:37:00,27.4,24.3,30.86,NW,304,5.0,10.0,88,0.00,CLR,CLR,0.01,WeatherDisplay:10.37,2013-03-02 23:37:00,
2013-03-02 18:42:00,27.4,24.3,30.86,NW,304,2.0,12.0,88,0.00,CLR,CLR,0.01,WeatherDisplay:10.37,2013-03-02 23:42:00,
2013-03-02 18:47:00,27.3,24.2,30.86,NW,304,3.0,12.0,88,0.00,CLR,CLR,0.01,WeatherDisplay:10.37,2013-03-02 23:47:00,
2013-03-02 18:52:00,27.3,24.2,30.86,NW,304,3.0,9.0,88,0.00,CLR,CLR,0.01,WeatherDisplay:10.37,2013-03-02 23:52:00,
2013-03-02 18:57:00,27.3,24.2,30.86,NW,304,3.0,12.0,88,0.00,CLR,CLR,0.01,WeatherDisplay:10.37,2013-03-02 23:57:00,
2013-03-02 19:02:00,27.3,24.2,30.86,NW,304,3.0,7.0,88,0.00,CLR,CLR,0.01,WeatherDisplay:10.37,2013-03-03 00:02:00,
2013-03-02 19:07:00,27.3,24.2,30.86,NW,304,1.0,7.0,88,0.00,CLR,CLR,0.01,WeatherDisplay:10.37,2013-03-03 00:07:00,
2013-03-02 19:12:00,27.3,24.2,30.86,NW,304,3.0,12.0,88,0.00,CLR,CLR,0.01,WeatherDisplay:10.37,2013-03-03 00:12:00,
2013-03-02 19:17:00,27.2,24.1,30.86,NW,304,1.0,9.0,88,0.00,CLR,CLR,0.01,WeatherDisplay:10.37,2013-03-03 00:17:00,
2013-03-02 19:22:00,27.2,24.2,30.86,NW,304,5.0,10.0,88,0.00,CLR,CLR,0.01,WeatherDisplay:10.37,2013-03-03 00:22:00,
2013-03-02 19:27:00,27.2,24.1,30.86,NW,304,7.0,12.0,88,0.00,CLR,CLR,0.01,WeatherDisplay:10.37,2013-03-03 00:27:00,
2013-03-02 19:32:00,27.2,24.1,30.86,NW,304,2.0,9.0,88,0.00,CLR,CLR,0.01,WeatherDisplay:10.37,2013-03-03 00:32:00,
2013-03-02 19:37:00,27.2,24.1,30.86,NW,304,5.0,8.0,88,0.00,CLR,CLR,0.01,WeatherDisplay:10.37,2013-03-03 00:37:00,
2013-03-02 19:42:00,27.2,24.4,30.86,NW,304,0.0,4.0,89,0.00,CLR,CLR,0.01,WeatherDisplay:10.37,2013-03-03 00:42:00,
2013-03-02 19:47:00,27.1,24.3,30.87,NW,304,5.0,7.0,89,0.00,CLR,CLR,0.01,WeatherDisplay:10.37,2013-03-03 00:47:00,
2013-03-02 19:52:00,27.2,24.1,30.86,NW,304,6.0,9.0,88,0.00,CLR,CLR,0.01,WeatherDisplay:10.37,2013-03-03 00:52:00,
2013-03-02 19:57:00,27.1,24.0,30.86,NW,304,2.0,7.0,88,0.00,CLR,CLR,0.01,WeatherDisplay:10.37,2013-03-03 00:57:00,
2013-03-02 20:02:00,27.1,24.0,30.86,NW,304,5.0,9.0,88,0.00,CLR,CLR,0.01,WeatherDisplay:10.37,2013-03-03 01:02:00,
2013-03-02 20:07:00,27.1,24.0,30.86,NW,304,3.0,9.0,88,0.00,CLR,CLR,0.01,WeatherDisplay:10.37,2013-03-03 01:07:00,
2013-03-02 20:12:00,27.1,24.0,30.87,NW,304,5.0,9.0,88,0.00,CLR,CLR,0.01,WeatherDisplay:10.37,2013-03-03 01:12:00,
2013-03-02 20:17:00,27.1,24.0,30.86,NW,304,3.0,8.0,88,0.00,CLR,CLR,0.01,WeatherDisplay:10.37,2013-03-03 01:17:00,
2013-03-02 20:22:00,27.1,24.0,30.87,NW,304,6.0,10.0,88,0.00,CLR,CLR,0.01,WeatherDisplay:10.37,2013-03-03 01:22:00,
2013-03-02 20:27:00,27.1,24.0,30.87,NW,304,3.0,9.0,88,0.00,CLR,CLR,0.01,WeatherDisplay:10.37,2013-03-03 01:27:00,
2013-03-02 20:32:00,27.1,24.0,30.87,NW,304,5.0,8.0,88,0.00,CLR,CLR,0.01,WeatherDisplay:10.37,2013-03-03 01:32:00,
2013-03-02 20:37:00,27.0,23.9,30.87,NW,304,3.0,10.0,88,0.00,CLR,CLR,0.01,WeatherDisplay:10.37,2013-03-03 01:37:00,
2013-03-02 20:42:00,27.0,23.9,30.87,NW,304,1.0,7.0,88,0.00,CLR,CLR,0.01,WeatherDisplay:10.37,2013-03-03 01:42:00,
2013-03-02 20:47:00,27.0,23.9,30.87,NW,304,5.0,10.0,88,0.00,CLR,CLR,0.01,WeatherDisplay:10.37,2013-03-03 01:47:00,
2013-03-02 20:52:00,27.0,23.9,30.87,NW,304,7.0,10.0,88,0.00,CLR,CLR,0.01,WeatherDisplay:10.37,2013-03-03 01:52:00,
2013-03-02 20:57:00,27.0,23.9,30.87,NW,304,2.0,9.0,88,0.00,CLR,CLR,0.01,WeatherDisplay:10.37,2013-03-03 01:57:00,
2013-03-02 21:02:00,27.0,23.9,30.87,NW,304,2.0,9.0,88,0.00,CLR,CLR,0.01,WeatherDisplay:10.37,2013-03-03 02:02:00,
2013-03-02 21:07:00,27.0,23.9,30.87,NW,304,3.0,8.0,88,0.00,CLR,CLR,0.01,WeatherDisplay:10.37,2013-03-03 02:07:00,
2013-03-02 21:12:00,27.0,23.9,30.87,NW,304,5.0,9.0,88,0.00,CLR,CLR,0.01,WeatherDisplay:10.37,2013-03-03 02:12:00,
2013-03-02 21:17:00,26.9,23.8,30.87,NW,304,2.0,9.0,88,0.00,CLR,CLR,0.01,WeatherDisplay:10.37,2013-03-03 02:17:00,
2013-03-02 21:22:00,26.9,23.8,30.87,NW,304,5.0,13.0,88,0.00,CLR,CLR,0.01,WeatherDisplay:10.37,2013-03-03 02:22:00,
2013-03-02 21:27:00,26.9,23.8,30.87,NW,304,2.0,8.0,88,0.00,CLR,CLR,0.01,WeatherDisplay:10.37,2013-03-03 02:27:00,
2013-03-02 21:32:00,26.9,23.8,30.88,NW,304,3.0,7.0,88,0.00,CLR,CLR,0.01,WeatherDisplay:10.37,2013-03-03 02:32:00,
2013-03-02 21:37:00,26.9,23.8,30.87,NW,304,3.0,12.0,88,0.00,CLR,CLR,0.01,WeatherDisplay:10.37,2013-03-03 02:37:00,
2013-03-02 21:42:00,26.9,23.8,30.87,NW,304,2.0,6.0,88,0.00,CLR,CLR,0.01,WeatherDisplay:10.37,2013-03-03 02:42:00,
2013-03-02 21:47:00,26.9,23.8,30.87,NW,304,3.0,6.0,88,0.00,CLR,CLR,0.01,WeatherDisplay:10.37,2013-03-03 02:47:00,
2013-03-02 21:52:00,26.9,23.8,30.87,NW,304,1.0,5.0,88,0.00,CLR,CLR,0.01,WeatherDisplay:10.37,2013-03-03 02:52:00,
2013-03-02 21:57:00,26.9,23.8,30.87,NW,304,2.0,7.0,88,0.00,CLR,CLR,0.01,WeatherDisplay:10.37,2013-03-03 02:57:00,
2013-03-02 22:02:00,26.8,24.0,30.88,NW,304,1.0,3.0,89,0.00,CLR,CLR,0.01,WeatherDisplay:10.37,2013-03-03 03:02:00,
2013-03-02 22:07:00,26.8,24.0,30.87,NW,304,5.0,8.0,89,0.00,CLR,CLR,0.01,WeatherDisplay:10.37,2013-03-03 03:07:00,
2013-03-02 22:12:00,26.8,24.0,30.87,NW,304,2.0,7.0,89,0.00,CLR,CLR,0.01,WeatherDisplay:10.37,2013-03-03 03:12:00,
2013-03-02 22:17:00,26.8,24.0,30.87,NW,304,0.0,6.0,89,0.00,CLR,CLR,0.01,WeatherDisplay:10.37,2013-03-03 03:17:00,
2013-03-02 22:22:00,26.7,23.9,30.87,NW,304,2.0,5.0,89,0.00,CLR,CLR,0.01,WeatherDisplay:10.37,2013-03-03 03:22:00,
2013-03-02 22:27:00,26.7,23.9,30.87,NW,304,3.0,6.0,89,0.00,CLR,CLR,0.01,WeatherDisplay:10.37,2013-03-03 03:27:00,
2013-03-02 22:32:00,26.7,23.9,30.87,NW,304,1.0,4.0,89,0.00,CLR,CLR,0.01,WeatherDisplay:10.37,2013-03-03 03:32:00,
2013-03-02 22:37:00,26.7,23.9,30.87,NW,304,2.0,6.0,89,0.00,CLR,CLR,0.01,WeatherDisplay:10.37,2013-03-03 03:37:00,
2013-03-02 22:42:00,26.7,23.9,30.87,NW,304,2.0,8.0,89,0.00,CLR,CLR,0.01,WeatherDisplay:10.37,2013-03-03 03:42:00,
2013-03-02 22:47:00,26.7,23.9,30.87,NW,304,3.0,7.0,89,0.00,CLR,CLR,0.01,WeatherDisplay:10.37,2013-03-03 03:47:00,
2013-03-02 22:52:00,26.7,23.9,30.87,NW,304,2.0,7.0,89,0.00,CLR,CLR,0.01,WeatherDisplay:10.37,2013-03-03 03:52:00,
2013-03-02 22:57:00,26.7,23.9,30.87,NW,304,1.0,6.0,89,0.00,CLR,CLR,0.01,WeatherDisplay:10.37,2013-03-03 03:57:00,
2013-03-02 23:02:00,26.7,23.9,30.87,NW,304,3.0,6.0,89,0.00,CLR,CLR,0.01,WeatherDisplay:10.37,2013-03-03 04:02:00,
2013-03-02 23:07:00,26.6,23.8,30.86,NW,304,2.0,7.0,89,0.00,CLR,CLR,0.01,WeatherDisplay:10.37,2013-03-03 04:07:00,
2013-03-02 23:12:00,26.6,24.1,30.86,NW,304,3.0,9.0,90,0.00,CLR,CLR,0.01,WeatherDisplay:10.37,2013-03-03 04:12:00,
2013-03-02 23:17:00,26.6,24.1,30.86,NW,304,3.0,6.0,90,0.00,CLR,CLR,0.01,WeatherDisplay:10.37,2013-03-03 04:17:00,
2013-03-02 23:22:00,26.5,24.0,30.86,NW,304,3.0,7.0,90,0.00,CLR,CLR,0.01,WeatherDisplay:10.37,2013-03-03 04:22:00,
2013-03-02 23:27:00,26.5,24.0,30.86,NW,304,3.0,7.0,90,0.00,CLR,CLR,0.01,WeatherDisplay:10.37,2013-03-03 04:27:00,
2013-03-02 23:32:00,26.5,23.7,30.86,NW,304,5.0,12.0,89,0.00,CLR,CLR,0.01,WeatherDisplay:10.37,2013-03-03 04:32:00,
2013-03-02 23:37:00,26.5,23.7,30.86,NW,304,2.0,8.0,89,0.00,CLR,CLR,0.01,WeatherDisplay:10.37,2013-03-03 04:37:00,
2013-03-02 23:42:00,26.5,23.7,30.86,NW,304,5.0,8.0,89,0.00,CLR,CLR,0.01,WeatherDisplay:10.37,2013-03-03 04:42:00,
2013-03-02 23:47:00,26.5,23.7,30.86,NW,304,3.0,5.0,89,0.00,CLR,CLR,0.01,WeatherDisplay:10.37,2013-03-03 04:47:00,
2013-03-02 23:52:00,26.5,23.7,30.86,NW,304,3.0,9.0,89,0.00,CLR,CLR,0.01,WeatherDisplay:10.37,2013-03-03 04:52:00,
2013-03-02 23:57:00,26.5,23.7,30.86,NW,304,3.0,8.0,89,0.00,CLR,CLR,0.01,WeatherDisplay:10.37,2013-03-03 04:57:00,